Dewpoint
65 63 64 64 65 65 67 69 68 68 70 69 68 67 66 68 68 66 66 67 67 65 65 64 67 70 66 66 67 68 67 67 69 69 70 69 68 69 69 69 68 67 68 68 67 67 67 67 68 68 66 64 64 64 66 66 67 67 67 67 67 67 66 66 66 66 67 66 66 66 66 65 65 65 65 65 66 66 66 65 65 65 65 65 66
65 64 62 66 65 66 67 66 66 68 69 68 68 68 66 68 66 64 64 64 66 65 64 65 66 68 69 69 68 68 68 68 68 69 68 68 68 68 68 67 67 67 68 68 68 67 67 66 67 66 66 67 67 66 66 66 67 66 66 67 67 67 66 67 67 67 67 67 66 66 66 66 66 65 65 65 65 65 65 65 65 65 65 65 65
67 65 65 65 64 63 63 67 64 64 64 66 66 67 66 67 67 65 64 63 65 64 64 63 65 61 65 66 68 67 67 67 69 66 67 67 67 69 69 67 67 68 67 68 68 67 67 66 66 66 66 67 66 67 67 67 66 67 66 66 67 66 67 67 67 67 67 67 67 67 66 66 66 66 66 66 65 65 65 65 65 65 65 65 65
68 65 64 66 62 63 64 66 66 65 65 64 63 65 64 65 63 63 63 66 65 65 64 66 64 62 62 65 66 67 66 68 68 66 67 68 67 67 68 68 67 67 67 68 68 66 67 66 66 65 66 66 66 66 66 66 66 66 66 66 66 66 66 67 67 67 67 67 67 67 66 66 66 66 66 66 65 66 65 65 65 65 65 65 65
68 66 64 63 66 65 63 64 63 66 65 65 62 65 63 63 64 62 62 62 64 65 60 62 65 65 64 61 66 65 64 65 67 65 68 67 67 68 68 68 67 66 66 66 67 67 67 67 66 66 66 66 67 66 66 66 66 66 67 66 66 66 66 67 66 67 66 66 67 67 66 65 66 65 66 66 66 66 65 65 65 65 65 66 65
66 66 65 64 66 65 64 62 63 64 68 65 64 63 64 61 61 59 59 59 58 60 63 59 59 62 64 61 66 64 65 67 67 66 68 68 68 67 68 68 68 67 67 68 68 66 66 66 66 66 66 65 65 65 66 66 66 66 66 67 67 67 67 67 67 67 67 67 67 67 67 67 66 66 65 65 65 65 65 65 65 65 65 65 65
65 66 65 66 64 65 62 63 64 65 61 66 64 63 65 64 63 59 59 60 57 55 54 64 59 59 59 64 60 62 62 63 65 65 67 67 68 67 67 67 68 68 68 68 67 66 66 65 66 66 66 66 66 66 66 66 67 66 66 67 67 67 67 67 67 67 67 67 67 67 67 67 66 65 64 65 65 65 64 65 65 65 64 64 64
66 65 66 64 61 63 63 63 66 65 65 65 65 62 61 66 65 64 62 56 56 52 57 57 61 60 59 61 63 63 64 66 66 65 65 67 66 67 68 67 67 67 67 67 67 66 66 66 66 66 65 66 66 65 66 67 67 66 66 67 66 67 67 67 67 67 66 66 66 66 66 65 65 65 65 65 65 64 65 64 64 64 63 63 63
64 65 65 64 61 61 64 63 65 65 65 66 64 63 62 60 63 63 64 60 53 50 53 57 61 58 59 60 61 64 61 64 65 66 65 66 66 66 65 65 66 67 67 66 67 65 65 66 65 66 65 65 65 65 66 66 66 66 67 67 67 67 67 66 66 65 65 65 65 65 64 64 64 64 64 64 64 63 63 63 63 63 62 62 62
65 64 65 63 62 62 63 63 64 65 63 64 64 64 64 64 62 62 61 59 58 56 53 54 53 53 59 59 63 62 62 63 65 66 65 64 65 65 65 66 65 66 67 65 65 65 66 65 65 65 65 65 65 65 65 65 65 66 66 66 66 66 66 66 65 64 64 64 64 64 64 64 64 63 63 63 63 63 62 62 62 61 61 61 60
63 64 65 63 63 64 64 63 64 64 64 62 61 63 63 64 62 59 62 58 61 60 58 59 58 56 57 58 60 61 63 64 64 63 65 64 63 63 64 66 64 66 65 66 67 65 65 65 66 65 64 64 64 65 65 65 64 64 65 65 65 65 65 65 65 64 63 63 62 62 62 62 62 62 62 61 61 61 61 61 60 60 60 60 60
64 64 65 66 64 64 64 63 63 63 64 63 63 61 62 63 62 59 59 58 61 58 59 59 59 63 61 62 62 62 63 64 62 63 64 63 63 64 63 63 65 64 62 62 62 63 65 65 65 65 64 64 63 63 63 64 64 64 64 64 65 65 65 64 64 64 63 62 62 61 61 60 60 60 60 59 59 59 59 59 58 58 58 58 58
66 65 64 65 65 65 64 64 63 63 63 64 64 61 62 63 62 63 59 57 60 59 63 61 61 61 61 62 62 63 64 63 62 62 62 63 63 63 63 63 61 61 62 62 60 60 62 63 64 64 64 65 64 62 61 62 62 63 63 64 63 64 64 63 62 61 60 60 60 60 59 59 59 58 58 58 57 57 57 57 57 56 56 56 57
66 65 65 63 64 65 64 65 64 63 64 62 62 64 63 62 61 62 59 59 60 58 63 60 60 58 59 60 61 63 64 63 61 62 62 62 62 62 63 62 61 61 61 59 60 59 60 62 63 65 64 64 62 61 59 59 60 61 62 62 63 63 63 61 60 59 59 58 58 58 58 57 57 56 55 55 56 56 56 55 55 58 58 58 58
62 65 64 63 64 64 65 65 65 63 64 64 63 63 62 61 61 60 61 60 60 60 63 61 59 60 59 58 58 57 60 61 62 61 62 62 61 61 61 60 60 60 59 59 59 59 60 60 60 60 60 60 59 58 58 58 58 60 60 60 61 61 62 61 60 59 58 57 57 57 57 57 56 56 56 56 55 55 57 56 57 57 58 58 58
60 56 62 64 65 62 63 65 65 64 62 62 62 59 62 61 60 60 60 58 56 58 60 62 61 60 56 57 59 58 55 56 59 61 61 60 60 59 60 60 60 60 59 59 59 59 59 59 58 59 59 57 56 56 56 55 56 58 59 59 59 60 60 60 60 59 58 57 56 56 56 55 55 55 54 54 54 54 55 55 54 54 55 56 55
63 63 56 62 64 64 63 62 64 64 62 61 60 57 61 60 60 60 59 60 58 59 60 60 60 63 60 58 58 54 55 58 58 58 61 58 60 58 60 58 58 59 59 58 58 58 58 58 58 58 58 57 56 55 54 54 54 56 55 56 56 57 58 58 57 57 57 56 55 55 55 55 55 54 53 53 53 53 53 53 53 53 54 55 55
59 61 61 60 62 65 63 58 64 62 63 62 62 60 59 58 58 59 59 61 60 59 58 61 62 63 61 62 62 59 56 58 58 54 59 59 58 55 56 56 58 58 58 57 57 58 58 57 57 57 57 56 55 54 54 53 55 54 54 53 55 55 56 56 56 56 55 55 55 54 54 54 54 54 53 52 52 53 52 53 52 52 52 54 55
63 57 60 63 62 62 63 64 56 64 66 65 62 60 58 58 58 59 58 60 61 59 59 58 60 61 60 62 63 63 60 59 56 57 54 57 58 57 55 55 55 56 56 55 56 57 57 56 55 55 56 55 54 53 52 53 56 57 55 54 54 54 55 55 55 55 55 54 54 54 53 53 53 53 52 52 52 52 52 52 51 51 51 52 53
63 62 55 61 57 63 60 62 62 57 59 63 62 63 61 61 61 61 60 60 61 60 59 59 60 60 61 63 62 60 59 61 59 57 57 53 54 56 56 57 58 59 56 54 54 56 56 56 53 51 50 48 48 49 51 52 53 54 56 53 54 54 54 54 54 53 53 53 53 53 52 52 52 52 52 53 52 51 51 51 51 51 50 52 51
63 61 59 60 62 63 61 59 62 62 59 64 60 62 62 62 61 61 61 59 61 61 61 60 60 61 60 60 61 60 61 61 60 60 58 54 53 54 54 56 54 51 52 51 51 52 52 52 50 48 47 44 43 44 46 49 52 53 55 55 53 53 53 53 53 52 52 52 52 52 52 51 52 52 52 53 52 51 51 51 51 51 50 51 51
64 63 61 57 59 59 57 60 63 60 61 60 61 61 60 61 60 61 61 60 61 60 61 61 61 61 59 61 59 59 61 59 59 59 57 57 54 54 54 53 50 51 52 50 48 48 46 48 44 42 41 41 41 42 43 45 48 52 54 55 54 52 52 53 52 51 51 50 51 51 51 50 51 51 51 51 52 51 51 51 51 51 51 51 51
67 69 62 59 62 61 60 60 60 62 61 61 60 59 60 61 62 61 61 60 60 60 61 61 60 61 59 61 61 61 59 58 59 59 58 56 54 55 56 52 47 48 48 46 45 44 42 44 43 43 42 41 41 42 42 42 46 51 55 54 52 52 52 53 51 50 50 49 49 50 51 51 50 51 51 51 51 51 50 50 50 50 50 51 51
64 67 61 60 62 64 62 62 61 62 61 62 62 60 59 59 61 60 60 60 61 59 60 60 60 60 60 60 60 59 60 60 60 59 58 56 56 55 55 51 47 44 49 50 44 42 40 40 41 42 42 41 41 43 42 42 43 50 52 54 52 51 51 51 50 50 50 49 48 49 50 51 50 51 50 51 51 51 49 49 50 50 51 51 51
62 66 60 60 66 67 67 66 67 66 63 62 62 61 61 60 60 59 60 59 58 58 61 59 60 60 60 61 60 59 60 62 63 61 59 58 56 56 54 53 48 48 47 48 46 43 40 40 39 40 41 42 43 42 42 42 42 47 51 52 51 50 50 50 50 49 50 50 48 47 48 49 51 51 51 51 50 49 48 48 50 50 51 51 52
62 62 62 62 63 60 60 63 62 62 61 62 61 60 60 59 57 59 57 59 58 60 59 59 60 60 61 60 59 59 60 62 62 60 59 57 56 55 53 52 50 48 49 45 43 40 41 40 39 39 39 38 39 42 43 41 42 47 48 47 47 47 47 47 48 49 49 49 48 47 47 48 50 50 50 49 47 48 48 49 50 50 51 51 52
62 61 60 62 61 65 60 62 62 60 59 61 59 59 62 59 59 60 59 60 58 59 58 58 59 58 60 60 60 60 60 61 62 60 60 58 57 56 53 51 51 49 48 46 41 37 40 35 35 39 41 42 39 37 37 38 43 46 44 40 42 47 46 45 46 46 47 47 46 46 47 47 48 49 49 49 48 48 49 48 49 49 50 51 51
60 60 58 60 60 60 59 60 59 60 60 59 59 58 60 60 60 59 58 57 58 58 58 57 58 57 60 58 59 59 59 61 62 62 61 60 59 58 56 53 50 48 50 46 46 44 43 39 39 40 40 41 40 39 41 40 40 45 43 40 39 43 45 45 44 44 44 44 45 46 46 46 46 48 48 49 48 49 49 48 50 49 50 50 50
59 62 57 61 59 60 61 62 58 58 56 59 56 59 56 58 59 59 60 59 58 57 58 58 58 58 59 58 58 59 58 61 61 61 61 61 60 60 61 57 56 50 48 46 47 46 44 45 43 42 40 40 44 44 39 39 43 42 41 39 39 41 45 44 44 44 43 43 43 44 46 46 46 46 47 49 50 50 48 49 49 50 50 49 49
60 58 59 60 61 57 61 60 61 59 57 58 57 56 59 59 61 59 60 57 56 61 60 55 57 56 58 58 58 58 60 59 61 62 61 60 60 60 60 59 59 56 53 47 47 49 49 48 45 44 45 43 42 41 41 41 45 41 39 39 39 41 43 44 44 43 43 43 42 42 43 45 46 47 47 49 50 50 49 49 49 49 48 48 47
60 60 59 59 60 55 59 59 57 56 57 59 56 57 58 57 59 58 60 59 57 59 58 57 56 55 56 56 60 61 56 59 61 61 62 61 60 60 61 60 58 57 56 51 47 51 51 48 47 45 46 43 40 41 43 42 44 42 40 41 41 43 43 43 43 43 43 42 42 42 42 42 45 46 46 47 48 48 47 47 47 47 46 45 45
60 59 57 57 59 58 58 57 58 58 58 58 59 58 58 61 57 56 59 55 55 56 56 58 58 57 56 56 55 56 56 56 59 58 60 61 61 61 60 59 58 58 58 53 49 49 52 48 47 44 44 41 39 39 41 45 47 45 41 41 41 40 37 40 43 43 43 42 41 41 41 41 42 44 45 45 46 46 46 46 46 44 44 44 44
59 59 58 57 56 57 55 56 55 55 55 57 58 57 57 57 61 57 55 54 53 56 56 56 55 56 55 52 54 54 54 55 54 53 57 58 59 59 59 59 59 59 57 53 48 48 50 49 48 45 44 44 40 39 39 40 42 43 44 43 44 39 37 37 40 43 42 43 42 41 41 41 40 42 44 44 43 43 44 43 43 43 44 44 44
59 57 54 59 59 56 55 53 53 56 56 55 54 57 56 57 55 55 54 54 54 54 55 55 53 54 54 52 51 53 52 54 52 50 52 57 57 58 58 57 57 57 57 52 49 48 47 47 47 45 45 45 42 43 44 42 43 44 44 45 45 40 38 37 36 41 42 42 41 41 41 40 40 41 42 42 41 40 41 41 41 42 42 43 42
59 59 58 59 56 56 55 57 55 54 56 54 55 55 55 52 52 54 53 51 51 52 52 53 52 51 53 52 52 52 54 53 53 57 54 53 56 56 56 56 56 56 55 54 50 48 46 47 45 44 45 47 44 40 42 46 46 45 42 42 41 42 42 39 38 40 43 42 41 41 41 40 39 39 41 41 41 40 40 41 40 40 41 41 41
58 60 60 57 56 58 57 54 53 57 55 55 53 54 53 53 52 50 51 50 50 51 51 52 50 52 52 52 51 49 52 52 51 59 55 57 53 55 56 55 56 54 54 54 51 48 47 46 44 42 46 46 43 42 44 43 42 41 41 44 43 42 41 42 38 38 42 43 42 41 42 41 40 39 39 40 41 40 39 40 40 40 40 40 40
58 58 58 57 58 54 56 53 52 52 53 52 51 50 51 50 48 49 46 49 49 51 52 49 46 52 51 51 48 52 52 54 54 54 55 55 51 55 53 52 53 54 54 53 51 51 47 45 45 46 45 45 45 43 41 42 42 42 43 43 42 42 42 41 42 42 43 44 42 43 43 41 40 40 39 38 39 39 39 39 39 39 39 40 40
58 58 56 57 53 52 51 50 50 50 50 52 51 50 47 47 50 51 51 51 50 50 51 52 52 52 50 50 52 51 51 52 52 53 54 54 53 52 52 52 50 52 53 52 51 49 48 45 46 45 46 46 43 44 43 43 42 42 39 42 44 45 44 43 43 41 41 43 43 43 43 40 41 40 40 39 38 38 39 38 38 38 39 39 40
57 57 56 55 56 52 51 51 51 54 51 50 53 52 49 42 46 47 51 50 51 53 51 50 50 51 51 49 50 49 48 48 50 50 51 53 54 53 53 54 52 53 50 51 50 51 50 46 46 45 46 45 45 45 39 42 45 41 42 43 41 41 42 44 44 44 43 43 45 43 44 41 38 32 37 39 38 37 37 36 37 38 38 39 39
57 55 54 55 56 53 55 54 53 57 53 51 51 48 49 46 50 50 50 51 51 50 50 50 51 49 50 49 47 47 45 45 46 44 47 50 53 53 53 52 51 52 51 52 49 48 50 47 46 45 46 45 46 47 42 41 40 43 44 46 40 41 41 41 40 43 42 46 44 42 44 42 45 33 33 33 35 33 35 35 37 38 38 39 40
58 55 56 55 53 50 50 57 54 54 52 53 52 52 51 44 49 50 50 50 50 50 49 49 49 49 47 46 46 47 48 48 47 46 46 48 48 47 47 48 50 54 52 49 51 49 49 49 47 47 47 44 44 47 41 39 46 44 43 46 43 42 39 42 40 41 40 39 39 41 41 41 36 29 25 24 26 27 29 33 35 36 38 40 39
58 58 57 57 53 53 51 52 55 55 53 53 52 49 50 51 48 42 51 50 48 49 48 49 49 46 44 44 47 47 48 48 45 42 41 42 44 44 42 43 45 46 48 50 49 50 48 48 47 47 46 45 46 45 44 43 44 44 43 45 43 43 40 41 42 43 46 45 41 40 42 38 32 28 27 27 24 31 31 31 34 35 39 38 38
60 58 58 57 58 56 51 54 55 57 55 49 44 38 38 42 52 52 49 49 48 49 49 48 49 46 44 44 47 48 47 45 43 41 41 40 40 39 39 41 44 41 43 44 44 49 49 48 49 47 47 45 47 45 45 46 44 44 41 41 45 41 42 38 37 40 43 45 43 41 41 43 35 31 30 30 29 33 33 33 38 40 40 38 38
60 60 58 57 57 58 57 54 55 55 54 47 38 38 38 37 42 51 51 49 49 49 48 49 47 47 46 47 49 50 48 46 44 41 42 42 40 39 38 37 36 37 38 37 41 42 45 48 47 47 46 47 45 45 46 45 44 46 44 43 47 44 43 42 39 39 42 47 45 41 42 43 39 37 35 34 35 34 31 35 38 38 39 38 38
61 60 59 57 57 57 57 54 55 54 51 41 39 38 37 36 36 48 49 48 49 49 48 47 47 47 48 49 50 48 40 42 44 43 42 42 42 43 43 43 40 37 39 41 41 43 43 46 48 48 49 47 43 45 48 46 46 45 44 44 44 47 45 40 39 40 42 45 43 41 37 40 42 40 39 39 38 38 37 38 38 38 39 39 38
60 59 59 57 56 56 55 54 55 55 49 42 38 38 37 35 35 38 47 49 49 48 46 47 46 47 47 47 46 45 46 47 48 45 44 46 46 47 47 42 45 48 46 43 43 44 49 50 50 49 49 50 47 47 47 46 45 42 41 45 42 45 42 41 41 41 41 45 45 44 40 37 38 40 40 40 41 40 37 38 38 38 38 39 39
59 59 59 57 57 56 56 54 54 55 49 40 38 37 37 35 35 37 48 47 48 48 48 48 49 48 46 46 45 44 44 47 43 44 46 45 47 47 47 46 43 42 40 39 39 43 46 47 47 46 45 46 47 47 47 47 48 47 47 47 47 44 43 44 42 41 41 44 45 43 36 35 37 36 39 41 42 40 38 38 40 40 39 39 39
59 60 60 59 58 56 56 55 54 54 50 38 37 37 36 35 35 45 47 47 49 47 46 47 47 47 47 46 45 44 45 42 44 39 41 45 45 45 45 41 41 41 38 39 38 38 42 42 43 43 40 40 40 40 41 45 48 49 47 46 45 44 40 38 38 40 41 39 42 42 35 33 34 36 35 39 41 41 41 39 42 42 40 39 39
59 58 58 59 59 57 56 55 53 54 48 40 37 37 36 35 37 41 44 46 46 48 47 46 46 45 46 44 45 44 43 41 37 34 37 46 45 44 43 42 41 40 40 41 39 38 38 37 37 37 37 37 37 37 36 37 40 47 49 44 43 42 40 40 40 40 39 38 42 43 42 38 40 36 37 35 36 34 33 36 42 42 42 40 40
59 59 59 59 59 59 57 55 53 53 48 42 38 37 36 34 41 42 43 46 46 45 47 46 46 44 49 46 42 42 39 37 33 34 36 44 46 44 43 42 41 39 39 40 38 39 37 37 37 37 37 37 38 38 37 36 37 45 46 46 42 41 42 43 38 39 38 39 40 45 42 34 39 41 38 36 35 35 36 32 33 36 41 40 40
59 59 60 60 59 59 58 57 57 54 49 43 38 37 36 35 39 42 43 43 46 45 44 44 46 43 45 47 53 44 37 37 33 34 36 44 46 44 43 43 39 39 40 40 39 40 40 40 42 43 42 42 47 44 43 37 36 48 47 46 43 44 42 42 39 37 35 37 40 45 43 36 39 35 38 35 32 32 34 36 35 33 33 35 36